STARLINK-36833, 68109

Orbit data source: Space-Track

STARLINK-36833, 68109 is a payload satellite owned by SpaceX/Seattle (US) in SSO that was launched on Sun, 08 Mar 2026 UTC via an FALCON 9 launch vehicle from the Air Force Western Test Range (AFWTR). Payload-class satellites include a variety of spacecraft equipped with specific instruments for various scientific and technological missions. These include communications satellites like Starlink; space stations such as the ISS; scientific satellites like the Hubble; Earth observation satellites from companies like Planet Labs, Umbra, and HawkEye 360; GPS; miniature CubeSats for education and research; and military/defense satellites.

Loading next visibility...
Identifier
68109, 2026-044J
Orbit
SSO
Country
Flag of USUS
Related business
Manufacturer
SpaceX/Seattle
Mission
Operational Commercial Communications
Bus & Motor
STARLINK V2MO, Unknown motor
Mass
575 kg wet, ~530 kg dry
Launch date (UTC)
2026-03-08 (6 months ago)
Launch vehicle
FALCON 9
Launch site
Air Force Western Test Range (AFWTR)
Object type
Payload
Rocket body
Debris
Shape & HBR
Box + 1 Pan, 17.7 m
Radar Cross Section
41.120 m², Large (>1 m²)

Expand to show TLE details & history
Last TLE update: 19 hours ago

TLE from 19 hours ago
0 STARLINK-36833
1 68109U 26044J   26246.64687285  .00014445  00000-0  44895-3 0  9997
2 68109  97.2850 205.8132 0001656  97.1005 263.0426 15.33441200 28857
Epoch: 2026-09-03T15:31Z
TLE epoch observation values (Epoch: 2026-09-03T15:31:29.814Z)
Latitude
-0.00002°
Longitude
-9.84308°
Altitude
468.804 km
Speed
7.632 km/s
True Right ascension
13h 43m 15s
True Declination
0° 00' 00"
Sunlit
Object was in daylight at epoch
Visualization orbit readout
Latitude
Unknown
Longitude
Unknown
Altitude
Unknown
Speed
Unknown
Apparent Right ascension
Unknown
Apparent Declination
Unknown
Sunlit
N/A
Visualization observer readout
Local Sidereal Time
01:56:47
Azimuth
Unknown
Elevation
Unknown
Doppler factor
Unknown
Orbital elements
Apogee altitude
463.63 km
Perigee altitude
461.364 km
Semi-major axis
6,840.634 km
Eccentricity
0.00017
Inclination
97.285°
RAAN
205.8132°
Arg. of periapsis
97.1005°
True anomaly
263.02376°
Mean anomaly
263.0426°
Eccentric anomaly
263.03318°
Mean motion
3.83618 °/min
Orbital period
93.84 mins
BSTAR
0.00044895
Loading maneuver chart data...
Computing Atmospheric mass density...
Loading historical data...
Loading historical data...
Loading historical data...
Loading historical data...
Loading historical data...
Loading historical data...
Loading historical data...

Documentation

Showing up to 5 results
|